Athens, GA

1:22 AM EDT on June 28, 2017 (GMT -0400)
Athens / Epps

Weather History for KAHN - November, 2012

Change the Weather History Date:

Sunday, November 18, 2012

  Actual Average Record
Temperature  
Mean Temperature 54 °F 53 °F  
Max Temperature 62 °F 65 °F 80 °F (1994)
Min Temperature 46 °F 42 °F 22 °F (2014)
Degree Days  
Heating Degree Days 11 12  
Month to date heating degree days 223 175  
Since 1 July heating degree days 346 310  
Growing Degree Days 3 (Base 50)    
Moisture  
Dew Point 37 °F    
Average Humidity 60    
Maximum Humidity 77    
Minimum Humidity 42    
Precipitation  
Precipitation 0.00 in 0.13 in 1.85 in (1957)
Month to date precipitation 0.91 2.19  
Year to date precipitation 31.45 40.97  
Snow  
Snow 0.00 in 0.00 in 0.00 in (2002)
Month to date snowfall 0.0 0.0  
Since 1 July snowfall 0.0 0.0  
Since 1 September snowfall 0.0 0.0  
Snow Depth -    
Sea Level Pressure  
Sea Level Pressure 30.36 in    
Wind  
Wind Speed 9 mph (NE)    
Max Wind Speed 17 mph    
Max Gust Speed 23 mph    
Visibility 8 miles    
Events      
T = Trace of Precipitation, MM = Missing Value Source: NWS Daily Summary

Daily Weather History Graph

Daily Weather History Graph

Search for Another Location

Airport or City:

Trip Planner

Search our weather history database for the weather conditions in past years. The results will help you decide how hot, cold, wet, or windy it might be!

Date:

Astronomy

Nov. 18, 2012 Rise Set
Actual Time 7:08 AM EST 5:27 PM EST
Civil Twilight 6:42 AM EST 5:54 PM EST
Nautical Twilight 6:11 AM EST 6:24 PM EST
Astronomical Twilight 5:42 AM EST 6:54 PM EST
Moon 11:37 AM EST (11/18) 10:42 PM EST (11/18)
Length of Visible Light 11h 12m
Length of Day
10h 18m
Waxing Crescent, 30% of the Moon is Illuminated
Nov 18
Waxing Crescent
Nov 20
First Quarter
Nov 28
Full
Dec 6
Last Quarter
Dec 13
New

Hourly Weather History & Observations

Time (EST) Temp. Windchill Dew Point Humidity Pressure Visibility Wind Dir Wind Speed Gust Speed Precip Events Conditions
12:51 AM 48.9 °F - 26.1 °F 41% 30.38 in 9.0 mi ENE 11.5 mph - N/A   Overcast
1:51 AM 48.9 °F - 26.1 °F 41% 30.37 in 9.0 mi ENE 11.5 mph - N/A   Overcast
2:51 AM 48.9 °F - 26.1 °F 41% 30.38 in 9.0 mi NE 8.1 mph 19.6 mph N/A   Overcast
3:22 AM 48.2 °F - 26.6 °F 43% 30.37 in 9.0 mi ENE 11.5 mph - N/A   Overcast
3:46 AM 48.2 °F - 28.4 °F 46% 30.37 in 9.0 mi NE 13.8 mph - N/A   Overcast
3:51 AM 48.0 °F - 28.0 °F 46% 30.37 in 9.0 mi ENE 9.2 mph - N/A   Overcast
4:39 AM 48.2 °F - 30.2 °F 50% 30.37 in 9.0 mi NE 11.5 mph 19.6 mph N/A   Overcast
4:47 AM 48.2 °F - 30.2 °F 50% 30.37 in 9.0 mi NE 9.2 mph - N/A   Overcast
4:51 AM 48.0 °F - 30.9 °F 52% 30.37 in 9.0 mi NE 11.5 mph - N/A   Overcast
5:51 AM 46.4 °F 41.1 °F 32.0 °F 57% 30.38 in 9.0 mi ENE 11.5 mph - N/A   Mostly Cloudy
6:25 AM 46.4 °F 41.1 °F 33.8 °F 62% 30.39 in 9.0 mi ENE 11.5 mph 18.4 mph N/A   Mostly Cloudy
6:51 AM 46.9 °F - 33.1 °F 59% 30.40 in 9.0 mi ENE 11.5 mph - N/A   Mostly Cloudy
7:51 AM 46.9 °F - 34.0 °F 61% 30.40 in 8.0 mi NE 8.1 mph - N/A   Scattered Clouds
8:51 AM 48.9 °F - 36.0 °F 61% 30.41 in 8.0 mi ENE 12.7 mph - N/A   Clear
9:11 AM 50.0 °F - 37.4 °F 62% 30.40 in 8.0 mi ENE 11.5 mph - N/A   Mostly Cloudy
9:51 AM 53.1 °F - 39.0 °F 59% 30.40 in 8.0 mi ENE 13.8 mph 20.7 mph N/A   Overcast
10:09 AM 55.4 °F - 39.2 °F 54% 30.39 in 8.0 mi NE 13.8 mph - N/A   Scattered Clouds
10:51 AM 55.9 °F - 39.9 °F 55% 30.39 in 7.0 mi ENE 15.0 mph 21.9 mph N/A   Clear
11:51 AM 59.0 °F - 41.0 °F 51% 30.36 in 8.0 mi NE 6.9 mph 16.1 mph N/A   Partly Cloudy
12:10 PM 57.2 °F - 42.8 °F 59% 30.36 in 7.0 mi NE 11.5 mph - N/A   Mostly Cloudy
12:51 PM 57.2 °F - 42.8 °F 59% 30.35 in 7.0 mi ENE 9.2 mph - N/A   Overcast
1:25 PM 57.2 °F - 42.8 °F 59% 30.34 in 7.0 mi NE 9.2 mph - N/A   Overcast
1:51 PM 60.8 °F - 42.8 °F 52% 30.33 in 7.0 mi NE 8.1 mph 16.1 mph N/A   Overcast
2:51 PM 62.1 °F - 43.0 °F 50% 30.32 in 8.0 mi NE 11.5 mph 16.1 mph N/A   Clear
3:51 PM 61.0 °F - 43.0 °F 52% 30.31 in 8.0 mi ENE 10.4 mph - N/A   Clear
4:51 PM 60.1 °F - 42.1 °F 51% 30.31 in 8.0 mi NE 8.1 mph - N/A   Clear
5:51 PM 55.0 °F - 42.1 °F 62% 30.32 in 9.0 mi NNE 3.5 mph - N/A   Clear
6:51 PM 53.1 °F - 42.1 °F 66% 30.34 in 8.0 mi North 3.5 mph - N/A   Clear
7:51 PM 52.0 °F - 42.1 °F 69% 30.35 in 8.0 mi NNE 5.8 mph - N/A   Scattered Clouds
8:51 PM 51.1 °F - 41.0 °F 68% 30.35 in 8.0 mi NE 6.9 mph - N/A   Clear
9:51 PM 50.0 °F - 41.0 °F 71% 30.34 in 8.0 mi ENE 8.1 mph - N/A   Clear
10:51 PM 48.0 °F - 41.0 °F 77% 30.33 in 8.0 mi NE 5.8 mph - N/A   Clear
11:51 PM 50.0 °F - 41.0 °F 71% 30.32 in 8.0 mi NE 9.2 mph - N/A   Overcast